Theta_e
309 311 312 312 313 314 315 311 311 314 312 308 303 307 309 310 310 308 309 310 310 311 309 310 314 313 311 312 311 313 308 307 310 310 308 308 309 310 306 315 318 309 318 321
309 312 312 313 313 314 315 311 309 313 311 310 307 309 310 310 310 309 309 309 308 306 308 311 311 311 310 310 316 316 311 306 307 311 307 307 309 309 307 303 303 309 316 314
310 312 313 313 314 314 314 305 309 307 304 303 308 310 310 311 310 310 309 309 307 307 308 307 310 310 310 308 313 317 307 304 307 308 310 308 311 311 310 307 310 310 310 312
309 312 313 314 314 314 311 304 308 306 308 308 307 308 309 312 311 309 308 310 308 308 309 309 310 309 308 308 309 308 305 311 309 308 310 311 311 312 312 311 310 311 309 313
309 311 313 314 315 315 313 310 308 303 305 305 308 307 310 311 311 310 311 311 310 309 310 310 311 310 308 308 307 306 304 311 310 311 311 311 312 311 312 311 311 311 310 312
309 310 313 314 314 314 312 310 309 304 306 306 309 309 311 311 310 310 311 311 309 311 312 309 308 307 304 306 308 305 307 306 306 309 311 309 311 311 311 311 312 313 312 313
308 309 313 313 314 315 314 312 308 307 310 309 310 312 311 311 311 312 311 310 311 310 305 305 304 303 304 305 304 300 306 306 305 308 306 305 307 309 310 313 315 312 313 311
309 309 310 313 314 314 315 314 311 305 309 309 312 311 310 309 309 311 312 310 307 303 304 305 307 305 308 307 305 304 302 305 306 307 303 308 312 310 309 311 312 309 310 308
310 309 309 309 314 315 315 314 315 307 306 309 312 311 310 308 309 309 311 308 305 302 301 303 308 305 308 309 307 303 304 302 306 304 310 312 311 308 307 308 314 306 307 306
311 310 309 309 313 315 315 315 314 313 309 308 308 309 309 306 306 307 307 309 307 302 300 300 299 301 308 302 306 307 302 303 306 309 311 312 308 307 308 312 310 305 306 305
311 312 310 309 310 310 315 315 315 314 308 308 311 309 309 308 306 309 307 306 304 302 301 300 307 307 308 305 302 306 302 299 298 309 310 306 307 306 307 305 304 305 304 304
310 311 311 310 309 309 311 314 314 314 311 309 313 314 314 312 310 305 303 305 304 303 302 301 303 308 308 304 299 306 306 301 300 301 302 302 305 304 304 304 305 305 305 303
310 311 311 311 309 310 311 311 312 313 308 309 311 312 315 316 315 312 308 304 303 303 300 300 300 299 304 304 302 305 307 302 300 302 303 303 303 303 304 304 304 304 304 304
309 310 311 311 311 311 311 312 312 314 308 311 310 313 313 314 315 311 311 307 306 303 301 302 301 302 300 301 301 300 302 305 308 307 303 303 303 303 304 304 304 305 306 305
308 310 311 311 311 311 311 314 313 314 312 312 310 312 314 314 314 311 310 309 307 309 309 307 306 302 302 300 303 301 303 304 305 304 302 302 302 304 304 304 305 305 306 304
308 309 311 310 311 311 313 311 314 314 314 310 312 309 311 314 312 309 309 309 309 310 311 312 309 306 306 307 309 304 302 301 301 303 301 301 303 303 304 305 305 306 306 305
310 310 310 310 310 311 311 311 314 313 314 314 311 310 309 314 309 307 308 311 312 312 312 312 313 310 307 310 306 306 304 303 302 301 303 305 304 305 304 304 305 305 305 305
306 311 310 310 310 310 312 313 312 313 313 313 313 312 312 314 311 312 311 314 314 314 315 313 312 310 310 312 310 306 306 303 303 303 302 304 304 304 303 304 304 304 304 304
306 310 310 310 310 311 313 314 314 313 314 312 310 312 315 310 312 311 312 315 319 314 316 316 313 311 312 311 309 307 305 306 306 304 303 303 304 304 303 303 303 303 304 303
309 312 312 313 315 314 313 312 311 309 306 309 315 307 313 311 311 314 317 315 315 319 315 308 307 307 310 309 307 304 305 306 304 306 305 303 303 303 303 302 303 303 303 303
311 311 312 314 313 313 312 316 315 316 315 309 311 308 313 310 315 317 312 312 312 316 309 314 310 309 311 311 309 306 305 305 305 304 304 304 304 303 303 303 304 304 304 303
313 312 312 313 311 314 319 321 320 320 319 314 315 314 312 311 310 314 311 317 315 315 308 312 306 305 305 308 309 309 307 307 306 305 305 305 304 305 304 304 305 305 304 304
310 311 313 312 314 319 323 319 319 321 318 317 317 317 312 312 308 313 314 318 316 307 311 308 303 305 305 306 307 308 308 307 307 307 307 307 306 307 306 306 307 306 304 303
308 317 320 323 319 320 319 320 319 317 315 315 314 315 315 310 314 310 315 311 311 316 313 305 306 307 306 306 307 308 308 307 307 307 308 308 307 308 308 307 305 305 304 302
313 315 315 319 319 316 318 319 319 316 314 313 314 314 312 314 315 310 310 314 315 310 308 306 306 306 305 306 306 304 306 307 306 306 306 307 308 307 306 305 305 305 305 302
312 314 318 315 318 318 320 319 318 313 313 311 311 314 315 315 312 314 314 313 311 309 306 306 305 306 305 305 305 307 308 307 307 306 305 305 305 305 305 304 304 305 305 303
318 318 314 314 315 318 317 319 320 312 314 314 312 316 316 311 314 314 309 310 309 307 307 306 304 305 305 305 306 307 305 305 305 304 304 303 303 303 301 302 304 305 304 302
Wind_Speed
23 26 30 34 28 25 8 4 3 20 8 5 2 3 4 5 6 7 7 4 5 4 6 6 4 4 4 13 3 4 5 4 5 2 4 5 5 3 3 4 3 2 4 2
23 26 31 33 23 20 3 3 1 14 6 4 3 4 5 6 11 7 6 7 7 6 4 5 4 4 6 12 6 2 2 4 4 3 5 5 6 4 3 4 2 2 4 4
22 25 31 33 20 15 5 3 4 5 5 2 4 3 5 4 5 4 5 5 4 6 7 8 3 4 5 8 7 12 6 3 3 6 4 3 4 4 3 5 4 1 2 2
21 24 31 30 18 15 4 4 1 2 3 5 6 5 4 5 6 5 9 6 6 3 5 4 4 5 6 5 13 6 4 4 3 5 4 3 2 1 3 1 4 4 5 1
19 22 28 28 18 14 10 4 3 4 2 3 5 6 5 5 5 5 5 5 5 7 4 2 1 2 3 2 6 5 4 3 3 2 4 0 3 5 6 5 1 2 4 3
16 20 23 25 26 11 7 4 3 4 4 3 4 3 1 2 2 5 4 2 3 4 1 4 3 2 4 2 2 3 3 4 2 3 1 2 3 4 2 2 5 2 4 2
13 15 19 21 23 19 7 4 4 4 1 3 1 1 2 4 3 4 1 3 3 1 4 5 5 8 7 8 7 2 3 3 2 2 1 3 4 3 5 1 4 6 6 9
10 11 14 15 15 17 18 6 3 3 2 1 2 4 3 2 3 3 2 4 1 2 5 4 4 4 4 6 4 7 2 4 3 3 1 2 3 4 3 3 2 7 3 7
9 8 10 11 12 8 12 16 6 4 5 3 3 3 1 3 1 4 2 2 5 6 4 4 3 1 1 3 5 4 5 6 4 2 3 3 2 3 2 3 4 7 5 7
9 8 6 7 9 9 7 9 8 4 3 4 4 3 4 4 2 2 2 3 4 4 3 3 2 0 1 1 1 4 3 3 4 2 1 2 3 5 1 3 2 5 3 8
7 8 7 6 5 7 4 5 10 4 2 4 5 5 4 2 2 3 3 3 3 3 4 3 2 3 2 1 3 1 3 3 1 3 2 5 3 2 2 2 2 2 5 10
5 7 6 7 5 6 6 1 5 5 3 4 3 7 6 7 8 5 2 2 2 4 4 2 3 2 2 4 2 2 1 5 4 6 5 3 4 4 4 3 4 5 7 10
5 5 5 5 5 6 6 3 5 1 3 4 2 4 5 12 16 11 4 2 4 1 2 4 3 3 4 4 4 4 4 4 3 3 3 5 7 5 6 6 6 6 7 8
4 5 4 4 4 4 5 4 3 3 4 1 5 4 1 3 11 17 5 10 7 9 3 3 3 3 4 4 3 4 5 5 4 4 8 5 7 6 6 7 5 6 11 6
4 5 5 4 3 4 5 4 2 4 3 2 4 15 3 6 10 16 10 23 6 3 2 2 3 3 3 1 1 3 6 7 6 7 8 5 4 4 4 6 6 9 8 5
5 6 6 5 4 3 2 3 1 2 2 2 3 4 4 6 7 14 14 10 3 3 3 2 2 2 3 4 4 6 7 6 7 4 5 6 4 3 5 5 9 13 10 11
6 7 7 5 5 4 2 3 1 3 1 1 4 5 3 4 5 2 2 4 2 2 2 3 3 4 4 3 4 5 9 13 7 5 5 2 5 6 6 8 13 15 15 17
7 7 6 2 3 4 3 4 9 3 2 2 1 4 4 4 2 1 1 2 1 2 2 2 1 1 2 4 9 4 3 5 6 9 9 7 3 1 6 11 13 6 8 11
7 3 2 1 0 1 3 8 4 8 3 1 1 1 3 3 1 1 2 1 2 2 1 0 1 1 4 6 4 5 8 8 7 7 7 6 7 9 7 7 7 7 10 10
1 1 1 1 1 3 5 1 2 2 2 2 3 2 3 3 1 1 1 1 1 1 0 1 2 3 6 6 7 6 7 8 7 4 5 7 6 7 7 8 8 9 10 11
2 2 1 2 7 1 2 1 2 2 2 3 3 5 2 1 2 2 1 2 1 1 3 1 2 3 3 4 7 5 5 8 10 10 5 6 6 6 6 7 10 10 11 9
3 1 2 3 1 1 1 2 1 3 4 3 3 4 4 2 1 2 0 1 1 3 1 0 2 4 5 5 6 6 7 9 8 14 11 14 14 12 9 10 11 10 8 2
1 1 1 3 1 1 4 4 2 2 3 4 3 2 3 1 2 2 1 2 3 2 1 2 4 4 5 6 4 6 8 8 9 10 12 12 13 12 10 13 14 8 6 6
2 3 3 3 3 5 5 4 4 3 3 4 3 2 2 1 2 2 2 1 1 2 2 4 3 5 6 5 1 2 4 4 6 9 11 10 10 12 12 12 8 6 11 8
2 3 4 6 5 3 3 2 1 3 3 3 2 2 3 2 2 1 2 2 3 4 4 3 4 5 5 6 4 2 2 5 4 5 6 11 12 9 10 7 3 8 11 9
2 3 3 3 1 4 2 1 3 1 3 3 2 3 1 2 3 2 5 3 4 3 3 4 3 5 3 4 5 6 6 5 5 6 5 11 12 14 13 7 9 13 12 9
3 4 3 3 4 5 4 4 4 7 2 3 3 4 3 3 1 2 3 4 4 4 4 2 2 3 5 4 5 6 5 6 10 10 9 6 8 5 5 8 12 14 11 8
Wind_Direction
7 6 3 359 358 0 24 56 41 347 8 47 35 48 350 12 340 7 34 76 59 60 32 40 80 89 9 336 311 41 356 102 64 66 280 41 71 86 118 124 210 52 115 263
8 7 6 0 3 5 20 76 327 352 21 80 15 357 15 46 13 19 26 34 32 34 55 90 52 53 338 360 39 46 18 25 88 358 332 6 52 350 84 104 77 31 117 220
12 10 9 6 13 14 54 76 37 340 35 36 93 51 14 35 25 55 50 37 51 48 32 15 77 27 344 339 359 37 81 73 140 170 144 162 66 358 20 97 79 173 100 323
16 15 16 13 21 25 71 33 104 183 354 3 50 59 26 22 16 19 25 39 46 54 58 37 47 7 344 347 356 24 77 102 57 47 70 80 108 71 344 75 158 138 205 160
19 20 23 23 23 36 64 100 104 29 52 354 36 16 5 40 1 34 359 74 43 47 86 131 157 29 25 10 337 36 1 153 146 156 19 67 177 254 232 265 233 170 169 203
21 27 29 26 33 46 81 59 93 101 314 14 68 321 81 28 82 35 50 30 94 50 16 201 218 182 69 46 2 22 58 118 87 184 279 149 40 318 338 284 54 25 182 333
16 26 37 34 37 49 84 73 100 81 346 69 106 45 80 81 38 124 42 67 99 330 68 105 64 59 83 60 27 49 116 85 75 192 21 159 181 348 9 247 86 46 55 358
9 18 35 35 40 47 62 64 101 113 109 204 52 60 80 35 19 49 51 22 290 298 56 76 64 5 6 20 37 24 36 117 69 110 111 304 88 356 10 22 295 70 71 3
4 2 26 32 37 43 53 47 69 101 119 258 161 129 122 146 75 1 35 64 26 67 71 55 85 98 278 327 344 40 53 70 107 65 104 194 149 258 272 143 263 42 44 1
354 352 5 26 37 40 59 46 43 96 112 248 145 169 172 126 106 155 294 329 33 48 83 78 82 154 36 43 331 346 8 9 117 164 212 292 157 260 298 123 285 317 345 333
338 344 353 352 11 23 28 68 38 42 133 273 199 171 131 117 130 151 218 52 351 61 67 105 166 145 164 96 232 172 164 122 141 114 157 281 211 12 194 221 242 289 331 333
322 329 347 351 345 16 17 63 2 1 151 236 249 243 232 209 185 132 41 196 156 169 100 130 131 146 180 173 243 165 253 174 181 177 213 219 193 187 233 248 236 283 305 323
309 304 328 349 1 15 19 2 0 15 44 314 357 246 248 235 226 198 120 274 156 175 149 152 148 146 159 183 244 190 183 159 171 40 217 207 206 207 212 206 226 248 298 281
292 302 298 330 344 354 355 357 346 68 99 88 281 345 241 328 224 209 192 137 112 115 98 113 146 159 182 195 199 172 198 154 198 254 283 279 247 208 206 233 247 257 266 266
301 306 289 289 312 322 340 348 119 75 82 236 282 311 310 323 213 198 166 140 122 133 122 126 207 151 130 198 126 232 181 182 177 212 213 164 210 194 194 230 247 258 268 261
328 301 300 275 280 302 356 28 168 192 171 76 331 314 318 14 176 173 154 147 102 109 157 212 210 257 138 156 208 245 201 191 175 200 182 190 211 246 222 244 268 275 271 269
317 310 304 290 260 263 176 187 123 142 138 70 326 328 299 5 75 65 112 158 53 45 168 200 199 181 199 161 221 238 205 207 196 174 118 272 203 234 233 222 264 278 278 268
322 311 316 307 274 285 324 325 229 205 65 36 336 281 351 7 32 53 339 128 78 190 204 120 170 132 239 236 240 224 215 175 186 196 200 213 114 201 254 270 271 267 259 258
323 330 43 16 335 41 73 46 146 164 74 101 70 256 279 1 15 109 40 169 205 143 237 256 184 354 217 237 242 220 189 177 201 207 203 226 231 254 259 258 266 250 267 273
220 125 52 9 20 133 140 190 54 33 348 62 222 190 252 112 19 300 134 11 234 272 199 55 43 276 267 274 268 260 205 194 143 144 229 207 231 223 237 235 241 242 260 275
168 164 175 84 133 188 55 245 195 153 242 199 228 193 244 261 144 205 128 165 193 173 262 287 308 275 258 228 254 229 217 202 204 211 228 198 190 190 212 240 244 267 276 269
166 140 133 135 78 117 267 244 176 201 240 194 192 212 193 263 115 106 57 222 128 250 67 357 267 254 252 238 258 249 224 223 237 222 227 235 221 230 232 249 263 273 268 227
131 124 123 95 221 215 205 223 241 240 204 189 177 199 159 146 64 96 136 234 224 113 71 249 233 267 276 269 248 265 252 234 240 243 237 243 226 237 243 256 275 269 204 171
143 150 264 207 228 237 201 204 199 232 141 160 162 125 147 196 134 125 150 230 130 235 250 244 255 266 301 309 272 257 290 281 263 261 247 239 226 249 256 253 278 198 186 175
208 123 228 225 236 265 241 222 243 228 152 121 97 81 130 194 128 162 105 187 236 203 232 234 245 282 304 307 327 313 316 338 324 297 266 268 254 243 249 250 223 186 186 183
212 230 261 248 287 277 223 177 272 178 133 103 84 127 163 193 139 159 215 151 226 244 220 236 278 301 300 297 301 286 286 308 329 11 325 298 281 253 232 222 190 183 188 194
231 248 218 222 248 242 234 177 204 154 175 181 144 165 186 108 72 260 189 211 218 226 259 262 258 287 312 324 330 344 16 38 34 42 36 350 322 259 220 196 178 178 184 201